FW8254 Weather Reports


time (UTC)temp
C
wind
direction
speed
KPH
gust
KPH
rain 1hr
cm
rain 24hr
cm
rain mn
cm
humidity
%
barometer
mb
20260904232659 32 46 0.0 0.0 0.00 0.00 0.00 55 1007.8
20260904232155 32 46 0.0 0.0 0.00 0.00 0.00 54 1007.6
20260904231650 33 46 0.0 0.0 0.00 0.00 0.00 55 1007.8
20260904231145 33 46 0.0 0.0 0.00 0.00 0.00 54 1007.6
20260904230644 33 46 0.0 0.0 0.00 0.00 0.00 54 1007.8
20260904230140 33 46 0.0 0.0 0.00 0.00 0.00 53 1007.9
20260904225638 33 46 0.0 0.0 0.00 0.00 0.00 53 1007.8
20260904225133 33 46 0.0 0.0 0.00 0.00 0.00 52 1007.7
20260904224627 34 46 0.0 0.0 0.00 0.00 0.00 52 1007.7
20260904224122 34 46 0.0 1.6 0.00 0.00 0.00 51 1007.7
20260904223621 34 46 0.0 1.6 0.00 0.00 0.00 50 1007.5
20260904223116 34 47 0.0 0.0 0.00 0.00 0.00 52 1007.7
20260904222613 34 47 0.0 0.0 0.00 0.00 0.00 51 1007.4
20260904222108 34 47 0.0 0.0 0.00 0.00 0.00 50 1007.6
20260904221608 34 47 0.0 1.6 0.00 0.00 0.00 49 1007.7
20260904221108 34 47 0.0 1.6 0.00 0.00 0.00 49 1007.3
20260904220602 34 47 0.0 1.6 0.00 0.00 0.00 49 1007.5
20260904220058 34 46 0.0 1.6 0.00 0.00 0.00 50 1007.5
20260904215552 34 47 1.6 1.6 0.00 0.00 0.00 49 1007.7
20260904215048 34 49 0.0 0.0 0.00 0.00 0.00 51 1007.6
20260904214543 34 49 0.0 0.0 0.00 0.00 0.00 50 1007.5
20260904214038 34 50 0.0 3.2 0.00 0.00 0.00 50 1007.7
20260904213536 34 44 0.0 3.2 0.00 0.00 0.00 50 1007.9
20260904213034 34 60 1.6 3.2 0.00 0.00 0.00 50 1007.7
20260904212532 34 42 0.0 1.6 0.00 0.00 0.00 51 1007.8
20260904212028 34 50 1.6 1.6 0.00 0.00 0.00 50 1007.8
20260904211528 34 50 0.0 1.6 0.00 0.00 0.00 50 1007.6
20260904211023 34 51 0.0 1.6 0.00 0.00 0.00 51 1007.7
20260904210523 34 46 0.0 1.6 0.00 0.00 0.00 51 1007.8
20260904210019 35 34 1.6 1.6 0.00 0.00 0.00 51 1007.7
20260904205514 34 36 0.0 1.6 0.00 0.00 0.00 51 1007.7
20260904205011 35 42 0.0 3.2 0.00 0.00 0.00 50 1007.9
20260904204506 35 45 0.0 1.6 0.00 0.00 0.00 51 1008.1
20260904204002 34 49 1.6 3.2 0.00 0.00 0.00 51 1008.0
20260904203458 35 40 0.0 1.6 0.00 0.00 0.00 52 1008.2
20260904202954 34 47 1.6 1.6 0.00 0.00 0.00 51 1008.0
20260904202450 35 29 0.0 3.2 0.00 0.00 0.00 52 1008.3
20260904201946 35 43 1.6 8.0 0.00 0.00 0.00 52 1008.4
20260904201440 35 46 1.6 1.6 0.00 0.00 0.00 50 1008.5
20260904200936 35 32 0.0 1.6 0.00 0.00 0.00 50 1008.8
20260904200434 35 36 1.6 1.6 0.00 0.00 0.00 50 1008.7
20260904195930 35 35 1.6 1.6 0.00 0.00 0.00 51 1008.7
20260904195428 35 34 0.0 1.6 0.00 0.00 0.00 52 1008.7
20260904194927 35 38 0.0 3.2 0.00 0.00 0.00 52 1008.9
20260904194427 35 33 0.0 3.2 0.00 0.00 0.00 52 1008.9
20260904193922 35 39 1.6 3.2 0.00 0.00 0.00 52 1008.8
20260904193418 35 36 1.6 4.8 0.00 0.00 0.00 53 1009.2
20260904192914 35 22 0.0 4.8 0.00 0.00 0.00 53 1009.3
20260904192409 35 35 3.2 4.8 0.00 0.00 0.00 55 1009.4
20260904191905 35 55 3.2 8.0 0.00 0.00 0.00 54 1009.4
20260904191401 35 26 0.0 4.8 0.00 0.00 0.00 55 1009.3
20260904190857 35 30 0.0 3.2 0.00 0.00 0.00 56 1009.4
20260904190352 34 31 1.6 4.8 0.00 0.00 0.00 55 1009.6
20260904185849 34 31 3.2 4.8 0.00 0.00 0.00 56 1009.6
20260904185344 34 31 1.6 8.0 0.00 0.00 0.00 56 1009.7
20260904184844 34 32 0.0 11.3 0.00 0.00 0.00 56 1010.0
20260904184339 33 31 0.0 3.2 0.00 0.00 0.00 56 1010.1
20260904183834 33 43 1.6 4.8 0.00 0.00 0.00 56 1010.0
20260904183329 33 26 1.6 3.2 0.00 0.00 0.00 56 1009.9
20260904182824 33 56 3.2 3.2 0.00 0.00 0.00 56 1010.0
20260904182319 33 47 3.2 4.8 0.00 0.00 0.00 56 1010.0
20260904181815 33 40 1.6 3.2 0.00 0.00 0.00 56 1010.5
20260904181315 33 34 1.6 9.7 0.00 0.00 0.00 56 1010.0
20260904180810 33 28 1.6 3.2 0.00 0.00 0.00 56 1010.1
20260904180305 33 36 0.0 3.2 0.00 0.00 0.00 57 1010.1
20260904175804 32 33 0.0 3.2 0.00 0.00 0.00 57 1010.4
20260904175305 32 32 0.0 3.2 0.00 0.00 0.00 57 1010.1
20260904174758 32 27 1.6 3.2 0.00 0.00 0.00 56 1010.4
20260904174254 32 25 3.2 3.2 0.00 0.00 0.00 57 1010.5
20260904173749 32 27 0.0 3.2 0.00 0.00 0.00 57 1010.5
20260904173244 32 52 1.6 1.6 0.00 0.00 0.00 59 1010.5
20260904172741 32 22 1.6 1.6 0.00 0.00 0.00 60 1010.6
20260904172239 31 29 0.0 1.6 0.00 0.00 0.00 61 1010.5
20260904171734 31 51 3.2 3.2 0.00 0.00 0.00 62 1010.7
20260904171229 31 25 0.0 3.2 0.00 0.00 0.00 62 1010.6
20260904170726 31 35 1.6 3.2 0.00 0.00 0.00 62 1010.9
20260904170221 31 9 1.6 3.2 0.00 0.00 0.00 65 1010.8
20260904165720 31 37 0.0 3.2 0.00 0.00 0.00 65 1010.9
20260904165215 31 41 1.6 3.2 0.00 0.00 0.00 65 1010.8
20260904164709 31 39 1.6 3.2 0.00 0.00 0.00 65 1010.9
20260904164210 31 47 3.2 4.8 0.00 0.00 0.00 65 1011.2
20260904163706 31 56 3.2 3.2 0.00 0.00 0.00 66 1011.3
20260904163201 30 38 0.0 1.6 0.00 0.00 0.00 69 1011.4
20260904162700 30 18 1.6 3.2 0.00 0.00 0.00 70 1011.3
20260904162155 30 25 0.0 3.2 0.00 0.00 0.00 70 1011.5
20260904161651 30 32 0.0 1.6 0.00 0.00 0.00 70 1011.4
20260904161146 30 14 1.6 3.2 0.00 0.00 0.00 69 1011.6
20260904160642 30 5 1.6 1.6 0.00 0.00 0.00 69 1011.5
20260904160137 30 20 1.6 1.6 0.00 0.00 0.00 69 1011.6
20260904155632 30 26 1.6 1.6 0.00 0.00 0.00 69 1011.6
20260904155126 30 22 1.6 1.6 0.00 0.00 0.00 70 1011.9
20260904154625 30 40 0.0 1.6 0.00 0.00 0.00 71 1011.6
20260904154125 29 39 1.6 1.6 0.00 0.00 0.00 70 1011.8
20260904153620 29 42 0.0 1.6 0.00 0.00 0.00 70 1011.9
20260904153115 29 36 1.6 1.6 0.00 0.00 0.00 68 1011.9
20260904152612 28 49 1.6 4.8 0.00 0.00 0.00 69 1011.9
20260904152107 28 38 0.0 3.2 0.00 0.00 0.00 71 1011.9
20260904151602 28 39 1.6 3.2 0.00 0.00 0.00 76 1011.9
20260904151101 28 49 0.0 3.2 0.00 0.00 0.00 77 1012.0
20260904150556 28 56 1.6 3.2 0.00 0.00 0.00 77 1012.0
20260904150050 28 56 3.2 3.2 0.00 0.00 0.00 79 1011.8
20260904145549 28 41 3.2 4.8 0.00 0.00 0.00 80 1011.9
20260904145045 27 38 1.6 3.2 0.00 0.00 0.00 81 1011.9
20260904144541 27 56 3.2 3.2 0.00 0.00 0.00 82 1011.7
20260904144037 27 35 0.0 1.6 0.00 0.00 0.00 83 1011.7
20260904143532 27 17 0.0 1.6 0.00 0.00 0.00 84 1011.7
20260904143029 27 4 1.6 1.6 0.00 0.00 0.00 84 1011.7
20260904142525 27 40 1.6 3.2 0.00 0.00 0.00 85 1011.7
20260904142020 26 29 0.0 1.6 0.00 0.00 0.00 86 1011.7
20260904141515 26 37 1.6 3.2 0.00 0.00 0.00 86 1011.4
20260904141011 26 25 0.0 0.0 0.00 0.00 0.00 86 1011.7
20260904140511 26 16 0.0 1.6 0.00 0.00 0.00 87 1011.7
20260904140011 26 25 0.0 0.0 0.00 0.00 0.00 87 1011.6
20260904135510 26 23 0.0 1.6 0.00 0.00 0.00 88 1011.6
20260904135006 25 34 0.0 1.6 0.00 0.00 0.00 88 1011.8
20260904134501 25 31 0.0 0.0 0.00 0.00 0.00 89 1011.8
20260904133955 25 24 0.0 1.6 0.00 0.00 0.00 89 1011.6
20260904133449 25 26 1.6 1.6 0.00 0.00 0.00 89 1011.7
20260904132945 25 17 1.6 3.2 0.00 0.00 0.00 89 1011.9
20260904132440 25 22 1.6 3.2 0.00 0.00 0.00 89 1011.7
20260904131940 25 14 3.2 3.2 0.00 0.00 0.00 89 1011.8
20260904131435 25 37 0.0 0.0 0.00 0.00 0.00 90 1011.9
20260904130931 25 39 0.0 1.6 0.00 0.00 0.00 90 1011.8
20260904130430 25 13 1.6 1.6 0.00 0.00 0.00 90 1011.9
20260904125925 25 15 1.6 1.6 0.00 0.00 0.00 90 1011.8
20260904125421 25 32 1.6 1.6 0.00 0.00 0.00 90 1011.8
20260904124920 25 2 1.6 3.2 0.00 0.00 0.00 90 1011.9
20260904124417 25 8 1.6 3.2 0.00 0.00 0.00 90 1012.0
20260904123912 25 359 1.6 3.2 0.00 0.00 0.00 90 1012.0
20260904123407 25 4 1.6 3.2 0.00 0.00 0.00 90 1012.0
20260904122903 25 345 3.2 3.2 0.00 0.00 0.00 90 1011.9
20260904122402 25 3 1.6 3.2 0.00 0.00 0.00 90 1011.9
20260904121856 25 333 4.8 4.8 0.00 0.00 0.00 90 1012.0
20260904121353 25 333 3.2 3.2 0.00 0.00 0.00 90 1011.8
20260904120849 25 26 0.0 0.0 0.00 0.00 0.00 90 1012.0
20260904120345 25 6 1.6 1.6 0.00 0.00 0.00 90 1012.1
20260904115839 25 329 0.0 0.0 0.00 0.00 0.00 91 1011.9
20260904115335 24 337 0.0 0.0 0.00 0.00 0.00 91 1011.7
20260904114829 24 337 0.0 0.0 0.00 0.00 0.00 91 1011.8
20260904114324 24 342 0.0 0.0 0.00 0.00 0.00 91 1011.8
20260904113819 24 319 1.6 3.2 0.00 0.00 0.00 91 1011.7
20260904113319 24 344 0.0 0.0 0.00 0.00 0.00 91 1011.9
20260904112813 24 344 0.0 0.0 0.00 0.00 0.00 91 1011.9
20260904112309 24 344 0.0 1.6 0.00 0.00 0.00 91 1011.5
20260904111804 25 343 0.0 0.0 0.00 0.00 0.00 91 1011.6
20260904111300 24 341 0.0 1.6 0.00 0.00 0.00 91 1011.6
20260904110755 25 339 0.0 0.0 0.00 0.00 0.00 91 1011.4
20260904110254 24 346 0.0 1.6 0.00 0.00 0.00 91 1011.5
20260904105750 24 346 0.0 0.0 0.00 0.00 0.00 90 1011.6
20260904105244 24 347 0.0 0.0 0.00 0.00 0.00 90 1011.5
20260904104739 24 347 0.0 0.0 0.00 0.00 0.00 90 1011.3
20260904104235 24 347 0.0 0.0 0.00 0.00 0.00 90 1011.6
20260904103732 24 346 0.0 0.0 0.00 0.00 0.00 90 1011.1
20260904103226 24 346 0.0 0.0 0.00 0.00 0.00 90 1011.4
20260904102722 24 345 0.0 0.0 0.00 0.00 0.00 90 1011.1
20260904102218 24 344 0.0 0.0 0.00 0.00 0.00 90 1010.9
20260904101714 24 344 0.0 0.0 0.00 0.00 0.00 89 1011.0
20260904101209 24 343 0.0 0.0 0.00 0.00 0.00 89 1011.0
20260904100705 24 343 0.0 0.0 0.00 0.00 0.00 89 1011.0
20260904100201 24 343 0.0 0.0 0.00 0.00 0.00 89 1011.2
20260904095700 24 343 0.0 0.0 0.00 0.00 0.00 89 1010.8
20260904095155 24 343 0.0 0.0 0.00 0.00 0.00 89 1010.8
20260904094650 24 343 0.0 0.0 0.00 0.00 0.00 89 1010.8
20260904094145 24 343 0.0 0.0 0.00 0.00 0.00 89 1010.9
20260904093642 24 343 0.0 0.0 0.00 0.00 0.00 88 1010.8
20260904093141 25 343 0.0 0.0 0.00 0.00 0.00 88 1010.8
20260904092638 24 343 0.0 0.0 0.00 0.00 0.00 88 1010.7
20260904092133 25 343 0.0 0.0 0.00 0.00 0.00 88 1010.6
20260904091629 25 343 0.0 0.0 0.00 0.00 0.00 88 1010.6
20260904091129 25 343 0.0 0.0 0.00 0.00 0.00 88 1010.5
20260904090624 25 342 0.0 0.0 0.00 0.00 0.00 88 1010.4
20260904090121 25 342 0.0 0.0 0.00 0.00 0.00 87 1010.4
20260904085620 25 342 0.0 0.0 0.00 0.00 0.00 87 1010.4
20260904085120 25 343 0.0 0.0 0.00 0.00 0.00 87 1010.3
20260904084616 25 343 0.0 0.0 0.00 0.00 0.00 87 1010.3
20260904084112 25 344 0.0 0.0 0.00 0.00 0.00 87 1010.2
20260904083608 25 343 0.0 0.0 0.00 0.00 0.00 87 1010.1
20260904083103 25 343 0.0 0.0 0.00 0.00 0.00 87 1010.2
20260904082558 25 343 0.0 0.0 0.00 0.00 0.00 87 1010.2
20260904082054 25 343 0.0 0.0 0.00 0.00 0.00 87 1009.9
20260904081549 25 343 0.0 0.0 0.00 0.00 0.00 87 1010.0
20260904081044 25 343 0.0 0.0 0.00 0.00 0.00 86 1009.9
20260904080540 25 343 0.0 0.0 0.00 0.00 0.00 86 1010.1
20260904080036 25 343 0.0 0.0 0.00 0.00 0.00 86 1010.0
20260904075532 25 343 0.0 0.0 0.00 0.00 0.00 86 1010.1
20260904075026 25 343 0.0 0.0 0.00 0.00 0.00 86 1010.0
20260904074520 25 343 0.0 0.0 0.00 0.00 0.00 86 1009.9
20260904074020 25 343 0.0 0.0 0.00 0.00 0.00 86 1009.8
20260904073515 25 343 0.0 0.0 0.00 0.00 0.00 85 1009.8
20260904073012 25 343 0.0 0.0 0.00 0.00 0.00 85 1009.8
20260904072507 25 343 0.0 0.0 0.00 0.00 0.00 85 1010.1
20260904072002 25 343 0.0 0.0 0.00 0.00 0.00 85 1010.0
20260904071457 25 343 0.0 0.0 0.00 0.00 0.00 85 1010.3
20260904070952 25 343 0.0 0.0 0.00 0.00 0.00 85 1010.2
20260904070450 25 342 0.0 0.0 0.00 0.00 0.00 84 1010.0
20260904065945 25 342 0.0 0.0 0.00 0.00 0.00 84 1010.1
20260904065441 25 342 0.0 0.0 0.00 0.00 0.00 84 1010.2
20260904064936 25 342 0.0 0.0 0.00 0.00 0.00 84 1010.1
20260904064433 25 342 0.0 0.0 0.00 0.00 0.00 84 1010.0
20260904063928 25 342 0.0 0.0 0.00 0.00 0.00 84 1010.2
20260904063424 25 341 0.0 0.0 0.00 0.00 0.00 84 1010.2
20260904062919 25 341 0.0 0.0 0.00 0.00 0.00 83 1010.3
20260904062415 25 341 0.0 0.0 0.00 0.00 0.00 83 1010.4
20260904061911 25 341 0.0 0.0 0.00 0.00 0.00 83 1010.3
20260904061407 25 341 0.0 0.0 0.00 0.00 0.00 83 1010.6
20260904060903 25 340 0.0 0.0 0.00 0.00 0.00 82 1010.5
20260904060358 26 341 0.0 0.0 0.00 0.00 0.00 82 1010.6
20260904055854 26 341 0.0 0.0 0.00 0.00 0.00 82 1010.8
20260904055349 26 341 0.0 0.0 0.00 0.00 0.00 82 1010.6
20260904054844 26 341 0.0 0.0 0.00 0.00 0.00 82 1010.7
20260904054340 26 341 0.0 0.0 0.00 0.00 0.00 82 1010.8
20260904053836 26 335 0.0 0.0 0.00 0.00 0.00 81 1011.0
20260904053335 26 334 0.0 0.0 0.00 0.00 0.00 81 1010.9
20260904052831 26 335 0.0 0.0 0.00 0.00 0.00 81 1010.9
20260904052327 26 335 0.0 0.0 0.00 0.00 0.00 81 1011.1
20260904051823 26 334 0.0 0.0 0.00 0.00 0.00 81 1011.0
20260904051319 26 334 0.0 0.0 0.00 0.00 0.00 80 1011.1
20260904050814 26 333 0.0 0.0 0.00 0.00 0.00 80 1011.1
20260904050311 26 340 0.0 0.0 0.00 0.00 0.00 80 1011.3
20260904045810 26 340 0.0 0.0 0.00 0.00 0.00 79 1011.3
20260904045307 26 340 0.0 0.0 0.00 0.00 0.00 79 1011.1
20260904044800 26 340 0.0 0.0 0.00 0.00 0.00 79 1011.2
20260904044256 26 337 0.0 1.6 0.00 0.00 0.00 79 1011.3
20260904043746 26 335 0.0 0.0 0.00 0.00 0.00 78 1011.4
20260904043243 26 335 0.0 0.0 0.00 0.00 0.00 78 1011.3
20260904042737 26 336 0.0 0.0 0.00 0.00 0.00 78 1011.4
20260904042234 26 335 0.0 0.0 0.00 0.00 0.00 78 1011.3
20260904041733 26 335 0.0 0.0 0.00 0.00 0.00 77 1011.3
20260904041230 27 336 0.0 0.0 0.00 0.00 0.00 77 1011.4
20260904040725 27 335 0.0 0.0 0.00 0.00 0.00 76 1011.4
20260904040221 27 335 0.0 0.0 0.00 0.00 0.00 76 1011.2
20260904035717 27 335 0.0 0.0 0.00 0.00 0.00 76 1011.2
20260904035212 27 334 0.0 0.0 0.00 0.00 0.00 75 1011.5
20260904034711 27 335 0.0 0.0 0.00 0.00 0.00 75 1011.4
20260904034207 27 335 0.0 0.0 0.00 0.00 0.00 75 1011.2
20260904033703 27 335 0.0 0.0 0.00 0.00 0.00 74 1011.3
20260904033159 27 335 0.0 0.0 0.00 0.00 0.00 74 1011.3
20260904032655 27 335 0.0 0.0 0.00 0.00 0.00 74 1011.3
20260904032153 27 335 0.0 1.6 0.00 0.00 0.00 73 1011.2
20260904031648 27 330 0.0 0.0 0.00 0.00 0.00 73 1011.2
20260904031144 27 332 0.0 0.0 0.00 0.00 0.00 73 1011.5
20260904030639 27 332 0.0 0.0 0.00 0.00 0.00 72 1011.4
20260904030135 28 332 0.0 0.0 0.00 0.00 0.00 72 1011.3
20260904025630 28 332 0.0 0.0 0.00 0.00 0.00 72 1011.1
20260904025125 28 332 0.0 0.0 0.00 0.00 0.00 72 1011.5
20260904024621 28 330 0.0 0.0 0.00 0.00 0.00 71 1011.1
20260904024116 28 330 0.0 0.0 0.00 0.00 0.00 71 1011.1
20260904023612 28 330 0.0 0.0 0.00 0.00 0.00 71 1011.1
20260904023108 28 330 0.0 0.0 0.00 0.00 0.00 71 1011.3
20260904022608 28 330 0.0 0.0 0.00 0.00 0.00 71 1011.5
20260904022105 28 330 0.0 0.0 0.00 0.00 0.00 71 1011.0
20260904021600 28 329 0.0 0.0 0.00 0.00 0.00 71 1011.1
20260904021055 28 329 0.0 0.0 0.00 0.00 0.00 70 1011.1
20260904020550 28 329 0.0 0.0 0.00 0.00 0.00 70 1011.3
20260904020044 28 330 0.0 0.0 0.00 0.00 0.00 70 1010.8
20260904015539 28 330 0.0 0.0 0.00 0.00 0.00 70 1010.8
20260904015038 29 329 0.0 0.0 0.00 0.00 0.00 69 1010.9
20260904014532 29 329 0.0 0.0 0.00 0.00 0.00 69 1010.7
20260904014028 29 329 0.0 0.0 0.00 0.00 0.00 68 1010.7
20260904013524 29 330 0.0 0.0 0.00 0.00 0.00 68 1010.7
20260904013021 29 333 0.0 1.6 0.00 0.00 0.00 67 1010.7
20260904012520 29 330 0.0 0.0 0.00 0.00 0.00 67 1010.5
20260904012015 29 330 0.0 0.0 0.00 0.00 0.00 68 1010.4
20260904011514 29 330 0.0 0.0 0.00 0.00 0.00 68 1010.2
20260904011010 30 330 0.0 0.0 0.00 0.00 0.00 68 1010.4
20260904010506 30 330 0.0 0.0 0.00 0.00 0.00 68 1010.3
20260904010001 30 330 0.0 0.0 0.00 0.00 0.00 67 1010.2
20260904005456 30 330 0.0 0.0 0.00 0.00 0.00 67 1010.1
20260904004951 30 330 0.0 0.0 0.00 0.00 0.00 67 1009.9
20260904004447 30 330 0.0 0.0 0.00 0.00 0.00 66 1009.8
20260904003947 30 330 0.0 0.0 0.00 0.00 0.00 66 1009.8
20260904003443 30 330 0.0 0.0 0.00 0.00 0.00 66 1009.6
20260904002938 30 330 0.0 0.0 0.00 0.00 0.00 66 1009.5
20260904002435 30 330 0.0 0.0 0.00 0.00 0.00 65 1009.5
20260904001933 30 329 0.0 0.0 0.00 0.00 0.00 65 1009.4
20260904001429 31 328 0.0 0.0 0.00 0.00 0.00 64 1009.2
20260904000929 31 328 0.0 0.0 0.00 0.00 0.00 64 1009.1
20260904000428 31 330 0.0 0.0 0.00 0.00 0.00 64 1009.2
20260903235925 31 6 0.0 0.0 0.00 0.00 0.00 63 1008.7
20260903235420 31 36 0.0 0.0 0.00 0.00 0.00 62 1008.9
20260903234920 31 36 0.0 0.0 0.00 0.00 0.00 62 1008.9
20260903234416 32 36 0.0 0.0 0.00 0.00 0.00 61 1008.9
20260903233912 32 36 0.0 0.0 0.00 0.00 0.00 61 1009.1
20260903233408 32 36 0.0 0.0 0.00 0.00 0.00 61 1009.0
20260903232902 32 36 0.0 1.6 0.00 0.00 0.00 60 1008.9